Location: Cluny
(50.9333°N, 112.8167°W)
Time: 10:17:59
(UTC-07:00)

Amateur Radio Satellites - All Passes

Search period start: 24 February 2017 09:47
Search period end: 25 February 2017 09:47
Location: Cluny, 50.9333°N, 112.8167°W

Satellite Date Start Highest point End Downlink Frequencies (MHz)
Time Altitude Azimuth
Oscar 11 24 Feb 09:52:55 09:57:17 81° 288° (WNW) 10:01:36 .
PRISM 24 Feb 09:53:05 09:56:36 28° 265° (W) 10:00:07 437.425
ISS 24 Feb 09:59:22 10:02:33 46° 154° (SSE) 10:05:44 437.550
UWE-3 24 Feb 10:07:59 10:12:14 34° 294° (WNW) 10:16:25 435.000/436.395/437.385
AIST 2D 24 Feb 10:12:43 10:15:48 28° 67° (ENE) 10:18:56 435.315
AAUSAT CUBESAT 2 24 Feb 10:15:37 10:18:50 22° 297° (WNW) 10:22:02 437.432
HO-68 24 Feb 10:19:12 10:25:09 30° 308° (NW) 10:31:06 435.675
DELFI C3 24 Feb 10:23:06 10:27:02 75° 102° (ESE) 10:30:57 145.870
SEEDS 24 Feb 10:24:03 10:25:42 12° 305° (NW) 10:27:22 437.485
Tancredo 1 24 Feb 10:27:51 10:31:05 66° 161° (SSE) 10:34:19 437.200
ZACube-1 24 Feb 10:31:52 10:35:57 32° 295° (WNW) 10:39:57 437.345
AO-85 24 Feb 10:36:54 10:39:03 14° 15° (NNE) 10:41:11 145.980
DUCHIFAT 1 24 Feb 10:44:54 10:48:49 39° 68° (ENE) 10:52:47 145.980
BEESAT 3 24 Feb 10:47:43 10:49:22 12° 351° (N) 10:51:01 437.485
EO-79 24 Feb 10:54:05 10:58:13 55° 70° (ENE) 11:02:24 145.935-145.965
POLYITAN 1 24 Feb 11:11:07 11:15:21 81° 76° (ENE) 11:19:40 437.675
NANOSAT C BR1 24 Feb 11:11:43 11:15:56 76° 72° (ENE) 11:20:12 145.865
QB50P2 24 Feb 11:14:02 11:18:17 89° 238° (WSW) 11:22:36 145.880/145.840
UNISAT 6 24 Feb 11:19:42 11:21:47 13° 275° (W) 11:23:54 437.425
TIGRISAT 24 Feb 11:20:07 11:22:24 14° 274° (W) 11:24:44 435.000
AO-73 24 Feb 11:22:11 11:24:42 15° 304° (NW) 11:27:10 145.935
BEESAT 2 24 Feb 11:23:19 11:25:04 12° 351° (N) 11:26:48 435.950
LO-87 24 Feb 11:27:09 11:30:41 53° 100° (E) 11:34:13 145.935 - 145.965
YUBILEINY 24 Feb 11:30:10 11:39:01 81° 281° (WNW) 11:47:52 435.215
Oscar 11 24 Feb 11:30:47 11:32:44 13° 305° (NW) 11:34:39 .
FO-29 24 Feb 11:32:54 11:39:27 36° 269° (W) 11:46:30 435.910
ISS 24 Feb 11:35:38 11:38:57 79° 355° (N) 11:42:15 437.550
ESTCUBE 1 24 Feb 11:40:51 11:45:05 39° 97° (E) 11:49:17 437.505/2401.250
AIST 2D 24 Feb 11:46:01 11:49:03 25° 266° (W) 11:52:05 435.315
BUGSAT 1 24 Feb 11:46:25 11:50:25 59° 72° (ENE) 11:54:30 437.445
DELFI C3 24 Feb 11:59:15 12:01:19 14° 302° (WNW) 12:03:24 145.870
50 SAT 24 Feb 12:01:40 12:03:28 14° 90° (E) 12:05:17 437.505
AO-7 24 Feb 12:02:13 12:07:11 18° 32° (NNE) 12:12:08 .
Oscar 19 24 Feb 12:03:20 12:07:57 35° 63° (ENE) 12:12:35 437.125/150
Tancredo 1 24 Feb 12:04:08 12:07:24 76° 2° (N) 12:10:39 437.200
DX 1 24 Feb 12:07:45 12:09:45 13° 88° (E) 12:11:44 434.975-435.025
VELOX 1 24 Feb 12:11:12 12:15:02 28° 95° (E) 12:18:52 145.980
AO-85 24 Feb 12:16:47 12:20:31 38° 39° (NE) 12:24:12 145.980
DUCHIFAT 1 24 Feb 12:21:04 12:24:37 26° 266° (W) 12:28:12 145.980
UKube-1 24 Feb 12:22:02 12:24:04 13° 88° (E) 12:26:05 .
BEESAT 3 24 Feb 12:26:35 12:28:37 13° 15° (NNE) 12:30:40 437.485
SPROUT 24 Feb 12:27:20 12:31:18 34° 96° (E) 12:35:13 437.525
EO-79 24 Feb 12:31:20 12:34:20 19° 270° (W) 12:37:21 145.935-145.965
ITAMSAT 1 24 Feb 12:38:20 12:40:04 12° 47° (NE) 12:41:47 435.822/435.867
Gurwin Techsat 1B 24 Feb 12:39:18 12:44:15 41° 65° (ENE) 12:49:13 435.225
POLYITAN 1 24 Feb 12:49:46 12:51:44 13° 273° (W) 12:53:45 437.675
NANOSAT C BR1 24 Feb 12:50:02 12:52:12 14° 272° (W) 12:54:23 145.865
QB50P2 24 Feb 12:53:23 12:54:46 11° 274° (W) 12:56:09 145.880/145.840
LO-87 24 Feb 13:01:35 13:03:47 16° 299° (WNW) 13:06:00 145.935 - 145.965
BEESAT 2 24 Feb 13:02:23 13:04:30 14° 15° (NNE) 13:06:36 435.950
ISS 24 Feb 13:12:10 13:15:29 82° 194° (SSW) 13:18:47 437.550
ESTCUBE 1 24 Feb 13:17:54 13:21:46 29° 296° (WNW) 13:25:38 437.505/2401.250
BUGSAT 1 24 Feb 13:23:36 13:26:12 16° 270° (W) 13:28:49 437.445
YUBILEINY 24 Feb 13:30:39 13:37:24 24° 306° (NW) 13:44:11 435.215
50 SAT 24 Feb 13:33:32 13:36:56 52° 288° (WNW) 13:40:19 437.505
Tancredo 1 24 Feb 13:40:28 13:43:41 61° 201° (SSW) 13:46:52 437.200
DX 1 24 Feb 13:42:10 13:46:33 84° 285° (WNW) 13:50:54 434.975-435.025
Oscar 19 24 Feb 13:42:22 13:47:13 41° 262° (W) 13:52:06 437.125/150
VELOX 1 24 Feb 13:47:29 13:51:35 38° 294° (WNW) 13:55:40 145.980
AO-7 24 Feb 13:50:11 13:58:04 48° 56° (ENE) 14:05:57 .
UKube-1 24 Feb 13:56:21 14:00:41 82° 286° (WNW) 14:05:00 .
AO-85 24 Feb 13:57:20 14:00:50 32° 240° (WSW) 14:04:21 145.980
SPROUT 24 Feb 14:03:22 14:07:10 31° 295° (WNW) 14:10:58 437.525
BEESAT 3 24 Feb 14:03:39 14:07:21 34° 37° (NE) 14:11:03 437.485
ITAMSAT 1 24 Feb 14:13:23 14:18:26 54° 68° (ENE) 14:23:33 435.822/435.867
Gurwin Techsat 1B 24 Feb 14:19:24 14:24:16 36° 264° (W) 14:29:11 435.225
BEESAT 2 24 Feb 14:39:39 14:43:24 34° 37° (NE) 14:47:08 435.950
ISS 24 Feb 14:48:52 14:51:40 26° 213° (SSW) 14:54:27 437.550
ITUPSAT 1 24 Feb 15:11:56 15:16:36 47° 100° (E) 15:21:13 437.325
Tancredo 1 24 Feb 15:17:25 15:19:30 16° 219° (SW) 15:21:35 437.200
BEESAT 24 Feb 15:19:08 15:23:53 56° 101° (E) 15:28:35 436.000
DX 1 24 Feb 15:19:56 15:22:04 14° 305° (NW) 15:24:11 434.975-435.025
UKube-1 24 Feb 15:34:02 15:36:03 13° 306° (NW) 15:38:03 .
BEESAT 3 24 Feb 15:41:15 15:45:03 41° 237° (WSW) 15:48:50 437.485
AO-7 24 Feb 15:42:41 15:50:48 53° 258° (WSW) 15:58:58 .
MOZHAYETS 4 24 Feb 15:48:20 15:52:47 44° 98° (E) 15:57:10
ITAMSAT 1 24 Feb 15:53:51 15:58:12 27° 267° (W) 16:02:37 435.822/435.867
PCSat 24 Feb 16:09:51 16:14:08 24° 110° (ESE) 16:18:26 145.827
DOVE 4 24 Feb 16:15:47 16:18:09 15° 57° (ENE) 16:20:32 437.250
BEESAT 2 24 Feb 16:17:27 16:21:17 41° 238° (WSW) 16:25:05 435.950
KAITUO 1B 24 Feb 16:24:36 16:26:13 12° 58° (ENE) 16:27:51 145.475/437.950
KKS-1 24 Feb 16:26:02 16:29:57 29° 95° (E) 16:33:50 437.445
XW-2F 24 Feb 16:27:08 16:29:23 15° 60° (ENE) 16:31:39 145.980 - 146.000
XW-2D 24 Feb 16:30:53 16:33:26 17° 61° (ENE) 16:35:59 145.860 - 145.880
XW-2B 24 Feb 16:35:44 16:38:25 18° 62° (ENE) 16:41:08 145.730 - 145.750
RS-15 24 Feb 16:39:20 16:48:53 29° 102° (ESE) 16:58:36 29.354- 29.394
XW-2C 24 Feb 16:43:58 16:46:57 22° 64° (ENE) 16:49:59 145.795 - 145.815
CUBESAT XI-V 24 Feb 16:45:27 16:49:30 30° 94° (E) 16:53:32 437.345
ITUPSAT 1 24 Feb 16:50:10 16:54:14 28° 299° (WNW) 16:58:16 437.325
CUTE-I 24 Feb 16:54:35 16:59:25 36° 63° (ENE) 17:04:18 437.470
BEESAT 24 Feb 16:57:31 17:01:20 24° 300° (WNW) 17:05:09 436.000
NUDT-PHONESAT 24 Feb 16:58:49 17:01:55 25° 65° (ENE) 17:05:04 437.300
LilacSat-2 24 Feb 16:59:20 17:02:47 31° 67° (ENE) 17:06:15 437.200
STARS 24 Feb 17:02:30 17:06:28 31° 96° (E) 17:10:25 437.465
HO-68 24 Feb 17:18:44 17:24:25 26° 50° (NE) 17:30:06 435.675
MOZHAYETS 4 24 Feb 17:25:51 17:29:46 28° 297° (WNW) 17:33:39
AO-7 24 Feb 17:43:11 17:45:40 11° 281° (W) 17:48:10 .
M-CUBED/EXP-1 PRIME 24 Feb 17:46:56 17:50:19 33° 104° (ESE) 17:53:55 437.505
DOVE 4 24 Feb 17:51:11 17:55:18 76° 256° (WSW) 17:59:33 437.250
PCSat 24 Feb 17:51:40 17:57:05 70° 310° (NW) 18:02:32 145.827
KAITUO 1B 24 Feb 17:55:51 17:59:40 84° 253° (WSW) 18:03:32 145.475/437.950
XW-2F 24 Feb 17:59:16 18:03:05 66° 258° (WSW) 18:06:57 145.980 - 146.000
KKS-1 24 Feb 18:02:26 18:06:37 39° 293° (WNW) 18:10:46 437.445
XW-2D 24 Feb 18:03:28 18:07:15 56° 259° (W) 18:11:05 145.860 - 145.880
XW-2B 24 Feb 18:08:33 18:12:18 51° 260° (W) 18:16:06 145.730 - 145.750
SEEDS 24 Feb 18:08:39 18:11:31 18° 60° (ENE) 18:14:24 437.485
XW-2C 24 Feb 18:17:18 18:20:57 41° 262° (W) 18:24:39 145.795 - 145.815
CUBESAT XI-V 24 Feb 18:22:42 18:26:59 39° 293° (WNW) 18:31:13 437.345
XW-2A 24 Feb 18:24:17 18:27:30 41° 70° (ENE) 18:30:46 145.665 - 145.685
STRAND 1 24 Feb 18:29:30 18:31:25 12° 84° (E) 18:33:20 437.568
NUDT-PHONESAT 24 Feb 18:32:18 18:35:45 33° 264° (W) 18:39:14 437.300
LilacSat-2 24 Feb 18:33:43 18:37:04 27° 265° (W) 18:40:28 437.200
CUTE-I 24 Feb 18:34:24 18:39:26 41° 262° (W) 18:44:30 437.470
NO-84 24 Feb 18:35:36 18:38:54 54° 147° (SSE) 18:42:34 435.350 FM
STARS 24 Feb 18:38:48 18:42:51 36° 294° (WNW) 18:46:54 437.465
CUTE 1.7 + AOD 2 24 Feb 18:43:53 18:48:01 50° 71° (ENE) 18:52:10 437.475
RS-15 24 Feb 18:47:34 18:59:39 83° 127° (SE) 19:12:06 29.354- 29.394
CUBEBUG 2 24 Feb 18:54:13 18:58:14 34° 65° (ENE) 19:02:25 437.445
HO-68 24 Feb 19:04:11 19:11:23 88° 250° (WSW) 19:18:37 435.675
AO-73 24 Feb 19:09:45 19:13:02 20° 60° (ENE) 19:16:22 145.935
Oscar 11 24 Feb 19:17:33 19:20:45 20° 60° (ENE) 19:23:58 .
M-CUBED/EXP-1 PRIME 24 Feb 19:21:38 19:24:44 27° 300° (WNW) 19:28:02 437.505
UWE-3 24 Feb 19:32:51 19:37:11 50° 69° (ENE) 19:41:40 435.000/436.395/437.385
AAUSAT CUBESAT 2 24 Feb 19:34:08 19:38:14 58° 72° (ENE) 19:42:19 437.432
PCSat 24 Feb 19:37:11 19:41:26 23° 333° (NNW) 19:45:43 145.827
YUBILEINY 24 Feb 19:38:03 19:44:08 20° 49° (NE) 19:50:10 435.215
DELFI C3 24 Feb 19:41:26 19:42:49 12° 56° (NE) 19:44:12 145.870
SEEDS 24 Feb 19:42:35 19:46:48 63° 259° (W) 19:51:01 437.485
ZACube-1 24 Feb 19:55:34 19:59:55 51° 69° (ENE) 20:04:22 437.345
XW-2A 24 Feb 19:58:16 20:00:29 16° 269° (W) 20:02:45 145.665 - 145.685
STRAND 1 24 Feb 20:06:19 20:11:32 74° 104° (ESE) 20:16:40 437.568
NO-84 24 Feb 20:13:09 20:16:39 51° 348° (NNW) 20:20:31 435.350 FM
CUTE 1.7 + AOD 2 24 Feb 20:20:55 20:24:08 20° 269° (W) 20:27:22 437.475
CUBEBUG 2 24 Feb 20:30:46 20:34:51 34° 265° (W) 20:39:05 437.445
AO-73 24 Feb 20:44:25 20:48:51 63° 259° (WSW) 20:53:24 145.935
Oscar 11 24 Feb 20:52:14 20:56:32 58° 260° (W) 21:00:51 .
HO-68 24 Feb 20:54:56 21:00:06 21° 272° (W) 21:05:19 435.675
RS-15 24 Feb 21:01:36 21:13:28 51° 336° (NNW) 21:25:29 29.354- 29.394
UWE-3 24 Feb 21:10:20 21:13:56 23° 269° (W) 21:17:36 435.000/436.395/437.385
AAUSAT CUBESAT 2 24 Feb 21:11:18 21:14:03 17° 270° (W) 21:16:50 437.432
ESTCUBE 1 24 Feb 21:11:56 21:13:21 11° 52° (NE) 21:14:46 437.505/2401.250
DELFI C3 24 Feb 21:13:00 21:16:58 85° 75° (ENE) 21:20:57 145.870
PCSat 24 Feb 21:23:55 21:26:53 15° 359° (N) 21:29:51 145.827
UNISAT 6 24 Feb 21:27:40 21:30:21 15° 87° (E) 21:33:01 437.425
TIGRISAT 24 Feb 21:28:19 21:30:49 14° 86° (E) 21:33:19 435.000
PRISM 24 Feb 21:28:52 21:32:21 26° 95° (E) 21:35:48 437.425
ZACube-1 24 Feb 21:32:58 21:36:29 22° 269° (W) 21:40:04 437.345
YUBILEINY 24 Feb 21:34:10 21:42:55 69° 75° (ENE) 21:51:35 435.215
STRAND 1 24 Feb 21:46:22 21:50:12 21° 304° (WNW) 21:54:01 437.568
NO-84 24 Feb 21:51:06 21:54:48 48° 9° (N) 21:58:49 435.350 FM
LO-87 24 Feb 22:07:58 22:11:22 46° 71° (ENE) 22:14:47 145.935 - 145.965
SO-50 24 Feb 22:33:10 22:37:12 29° 118° (ESE) 22:41:12 436.795
FO-29 24 Feb 22:36:21 22:43:34 39° 92° (E) 22:50:11 435.910
50 SAT 24 Feb 22:40:53 22:42:44 14° 60° (ENE) 22:44:34 437.505
ESTCUBE 1 24 Feb 22:44:51 22:49:19 66° 72° (ENE) 22:53:49 437.505/2401.250
DELFI C3 24 Feb 22:51:15 22:52:21 11° 273° (W) 22:53:26 145.870
QB50P2 24 Feb 22:56:05 22:57:19 11° 86° (E) 22:58:33 145.880/145.840
UNISAT 6 24 Feb 23:02:56 23:07:41 82° 285° (WNW) 23:12:22 437.425
TIGRISAT 24 Feb 23:03:24 23:08:10 86° 282° (WNW) 23:12:51 435.000
PRISM 24 Feb 23:03:59 23:07:42 35° 294° (WNW) 23:11:26 437.425
AIST 2D 24 Feb 23:06:22 23:08:51 18° 91° (E) 23:11:20 435.315
DX 1 24 Feb 23:07:24 23:10:45 22° 60° (ENE) 23:14:07 434.975-435.025
PCSat 24 Feb 23:08:14 23:12:23 21° 25° (NNE) 23:16:30 145.827
VELOX 1 24 Feb 23:12:57 23:17:08 46° 68° (ENE) 23:21:21 145.980
RS-15 24 Feb 23:17:34 23:29:17 44° 9° (N) 23:40:51 29.354- 29.394
O/OREOS (USA 219) 24 Feb 23:18:53 23:23:13 52° 111° (ESE) 23:27:38 437.305
UKube-1 24 Feb 23:20:38 23:23:58 22° 61° (ENE) 23:27:19 .
SPROUT 24 Feb 23:25:13 23:29:19 48° 70° (ENE) 23:33:28 437.525
NO-84 24 Feb 23:28:45 23:32:44 77° 209° (SSW) 23:37:00 435.350 FM
YUBILEINY 24 Feb 23:31:38 23:39:07 33° 279° (W) 23:46:33 435.215
LO-87 24 Feb 23:42:52 23:45:05 16° 269° (W) 23:47:19 145.935 - 145.965
DUCHIFAT 1 24 Feb 23:59:10 00:03:06 35° 96° (E) 00:07:01 145.980
EO-79 25 Feb 00:09:11 00:13:24 51° 100° (E) 00:17:35 145.935-145.965
50 SAT 25 Feb 00:11:58 00:15:26 60° 258° (WSW) 00:18:55 437.505
SO-50 25 Feb 00:12:54 00:17:28 53° 318° (NW) 00:22:00 436.795
FO-29 25 Feb 00:21:15 00:28:52 58° 294° (WNW) 00:35:53 435.910
ESTCUBE 1 25 Feb 00:23:34 00:26:35 17° 271° (W) 00:29:36 437.505/2401.250
NANOSAT C BR1 25 Feb 00:26:29 00:30:47 70° 103° (ESE) 00:35:03 145.865
POLYITAN 1 25 Feb 00:26:30 00:30:51 76° 103° (ESE) 00:35:08 437.675
QB50P2 25 Feb 00:29:28 00:33:48 86° 105° (ESE) 00:38:05 145.880/145.840
AIST 2D 25 Feb 00:38:55 00:42:18 41° 289° (WNW) 00:45:39 435.315
UNISAT 6 25 Feb 00:41:06 00:43:39 15° 305° (NW) 00:46:14 437.425
TIGRISAT 25 Feb 00:41:27 00:44:09 15° 305° (NW) 00:46:51 435.000
DX 1 25 Feb 00:42:27 00:46:39 51° 259° (W) 00:50:54 434.975-435.025
ITUPSAT 1 25 Feb 00:47:51 00:50:57 17° 55° (NE) 00:54:03 437.325
VELOX 1 25 Feb 00:50:19 00:53:49 23° 267° (W) 00:57:21 145.980
PCSat 25 Feb 00:51:25 00:56:51 63° 49° (NE) 01:02:14 145.827
BEESAT 25 Feb 00:54:25 00:57:47 19° 57° (ENE) 01:01:10 436.000
UKube-1 25 Feb 00:55:32 00:59:43 51° 260° (W) 01:03:57 .
BUGSAT 1 25 Feb 00:58:09 01:02:19 51° 100° (E) 01:06:27 437.445
O/OREOS (USA 219) 25 Feb 00:59:08 01:02:55 26° 312° (NW) 01:06:45 437.305
SPROUT 25 Feb 01:02:14 01:05:30 21° 268° (W) 01:08:48 437.525
NO-84 25 Feb 01:06:59 01:10:03 20° 226° (SW) 01:13:13 435.350 FM
MOZHAYETS 4 25 Feb 01:20:49 01:22:57 13° 53° (NE) 01:25:04
RS-15 25 Feb 01:31:45 01:44:13 71° 41° (NE) 01:56:15 29.354- 29.394
DUCHIFAT 1 25 Feb 01:34:59 01:38:43 30° 295° (WNW) 01:42:26 145.980
EO-79 25 Feb 01:45:34 01:48:53 22° 299° (WNW) 01:52:11 145.935-145.965
Oscar 19 25 Feb 01:48:16 01:53:14 48° 99° (E) 01:58:11 437.125/150
SO-50 25 Feb 01:55:33 01:58:53 19° 340° (NNW) 02:02:13 436.795
NANOSAT C BR1 25 Feb 02:03:15 02:06:02 17° 302° (WNW) 02:08:48 145.865
POLYITAN 1 25 Feb 02:03:27 02:06:07 16° 302° (WNW) 02:08:46 437.675
QB50P2 25 Feb 02:06:38 02:09:00 15° 304° (WNW) 02:11:21 145.880/145.840
FO-29 25 Feb 02:07:26 02:12:17 18° 317° (NW) 02:16:59 435.910
ITAMSAT 1 25 Feb 02:22:55 02:25:05 12° 85° (E) 02:27:14 435.822/435.867
ITUPSAT 1 25 Feb 02:23:21 02:28:10 86° 256° (WSW) 02:33:02 437.325
Gurwin Techsat 1B 25 Feb 02:29:40 02:34:59 62° 102° (ESE) 02:40:15 435.225
BEESAT 25 Feb 02:30:16 02:35:04 74° 256° (WSW) 02:39:54 436.000
BUGSAT 1 25 Feb 02:34:09 02:37:23 22° 299° (WNW) 02:40:37 437.445
PCSat 25 Feb 02:35:20 02:39:54 28° 249° (WSW) 02:44:25 145.827
MOZHAYETS 4 25 Feb 02:54:41 02:59:19 74° 73° (ENE) 03:03:59
M-CUBED/EXP-1 PRIME 25 Feb 03:06:13 03:07:19 11° 51° (NE) 03:08:27 437.505
Oscar 19 25 Feb 03:27:57 03:32:23 30° 299° (WNW) 03:36:48 437.125/150
KKS-1 25 Feb 03:28:35 03:32:50 49° 68° (ENE) 03:37:08 437.445
AO-7 25 Feb 03:38:11 03:45:58 41° 98° (E) 03:53:41 .
SO-50 25 Feb 03:38:21 03:41:02 15° 5° (N) 03:43:42 436.795
RS-15 25 Feb 03:44:50 03:56:20 49° 248° (WSW) 04:07:26 29.354- 29.394
CUBESAT XI-V 25 Feb 03:53:13 03:57:43 51° 70° (ENE) 04:02:14 437.345
ITAMSAT 1 25 Feb 04:00:11 04:05:28 75° 104° (ESE) 04:10:42 435.822/435.867
STARS 25 Feb 04:03:35 04:07:49 51° 69° (ENE) 04:12:06 437.465
ITUPSAT 1 25 Feb 04:04:31 04:06:45 13° 274° (W) 04:08:59 437.325
Gurwin Techsat 1B 25 Feb 04:10:15 04:14:34 26° 302° (WNW) 04:18:51 435.225
BEESAT 25 Feb 04:12:27 04:13:43 11° 275° (W) 04:14:58 436.000
AO-85 25 Feb 04:16:30 04:19:50 21° 116° (ESE) 04:23:01 145.980
MOZHAYETS 4 25 Feb 04:34:07 04:37:00 16° 272° (W) 04:39:56
M-CUBED/EXP-1 PRIME 25 Feb 04:38:06 04:41:21 75° 250° (WSW) 04:44:39 437.505
KKS-1 25 Feb 05:06:10 05:09:39 22° 267° (W) 05:13:10 437.445
SO-50 25 Feb 05:19:02 05:22:57 27° 30° (NNE) 05:26:49 436.795
AO-7 25 Feb 05:30:58 05:39:05 59° 299° (WNW) 05:47:10 .
CUBESAT XI-V 25 Feb 05:31:41 05:35:23 23° 268° (W) 05:39:06 437.345
XW-2D 25 Feb 05:32:55 05:34:15 11° 87° (E) 05:35:34 145.860 - 145.880
XW-2B 25 Feb 05:37:37 05:39:21 13° 88° (E) 05:41:03 145.730 - 145.750
ITAMSAT 1 25 Feb 05:40:31 05:44:25 22° 304° (NW) 05:48:18 435.822/435.867
STARS 25 Feb 05:41:07 05:44:27 21° 268° (W) 05:47:50 437.465
DOVE 4 25 Feb 05:44:30 05:48:03 21° 91° (E) 05:51:44 437.250
XW-2C 25 Feb 05:45:44 05:48:06 15° 89° (E) 05:50:25 145.795 - 145.815
STRAND 1 25 Feb 05:49:05 05:53:30 30° 61° (ENE) 05:57:58 437.568
AO-85 25 Feb 05:55:32 05:59:55 65° 314° (NW) 06:04:02 145.980
NUDT-PHONESAT 25 Feb 05:58:23 06:00:56 17° 91° (E) 06:03:28 437.300
LilacSat-2 25 Feb 06:01:45 06:04:53 23° 93° (E) 06:07:58 437.200
RS-15 25 Feb 06:02:12 06:05:19 11° 272° (W) 06:08:24 29.354- 29.394
HO-68 25 Feb 06:28:34 06:31:49 13° 82° (E) 06:35:03 435.675
CUTE-I 25 Feb 06:45:42 06:51:01 54° 101° (E) 06:56:16 437.470
KAITUO 1B 25 Feb 06:56:11 06:59:59 70° 102° (ESE) 07:03:44 145.475/437.950
SO-50 25 Feb 06:59:20 07:03:52 75° 231° (SW) 07:08:20 436.795
XW-2F 25 Feb 07:00:35 07:04:27 89° 282° (WNW) 07:08:15 145.980 - 146.000
XW-2D 25 Feb 07:05:08 07:08:58 77° 287° (WNW) 07:12:47 145.860 - 145.880
XW-2B 25 Feb 07:10:11 07:14:01 70° 286° (WNW) 07:17:49 145.730 - 145.750
BEESAT 3 25 Feb 07:12:20 07:16:13 62° 127° (SE) 07:20:10 437.485
XW-2A 25 Feb 07:14:16 07:17:05 22° 94° (E) 07:19:51 145.665 - 145.685
FO-29 25 Feb 07:14:40 07:16:51 11° 33° (NNE) 07:19:03 435.910
XW-2C 25 Feb 07:18:52 07:22:40 55° 288° (WNW) 07:26:23 145.795 - 145.815
DOVE 4 25 Feb 07:21:31 07:26:03 58° 289° (WNW) 07:30:51 437.250
SEEDS 25 Feb 07:22:22 07:24:54 16° 88° (E) 07:27:25 437.485
AO-7 25 Feb 07:24:40 07:30:18 21° 323° (NW) 07:35:56 .
STRAND 1 25 Feb 07:27:31 07:32:29 49° 261° (W) 07:37:31 437.568
NUDT-PHONESAT 25 Feb 07:31:29 07:35:09 48° 289° (WNW) 07:38:47 437.300
LilacSat-2 25 Feb 07:35:42 07:39:17 36° 292° (WNW) 07:42:49 437.200
AO-85 25 Feb 07:38:04 07:41:02 18° 336° (NNW) 07:43:54 145.980
O/OREOS (USA 219) 25 Feb 07:44:35 07:48:52 37° 53° (NE) 07:53:08 437.305
BEESAT 2 25 Feb 07:50:09 07:54:05 65° 127° (SE) 07:58:05 435.950
CUTE 1.7 + AOD 2 25 Feb 07:59:17 08:03:25 50° 99° (E) 08:07:31 437.475
Tancredo 1 25 Feb 07:59:26 08:00:20 11° 137° (SE) 08:01:15 437.200
HO-68 25 Feb 08:13:55 08:21:03 63° 103° (ESE) 08:28:07 435.675
CUBEBUG 2 25 Feb 08:15:50 08:20:19 38° 96° (E) 08:24:44 437.445
PRISM 25 Feb 08:22:38 08:26:25 38° 67° (ENE) 08:30:11 437.425
CUTE-I 25 Feb 08:26:13 08:30:48 29° 300° (WNW) 08:35:21 437.470
AO-73 25 Feb 08:28:01 08:31:20 20° 90° (E) 08:34:37 145.935
UNISAT 6 25 Feb 08:30:50 08:34:28 24° 61° (ENE) 08:38:10 437.425
TIGRISAT 25 Feb 08:31:17 08:34:50 23° 60° (ENE) 08:38:26 435.000
KAITUO 1B 25 Feb 08:31:31 08:33:31 14° 301° (WNW) 08:35:32 145.475/437.950
Oscar 11 25 Feb 08:35:01 08:38:07 19° 90° (E) 08:41:11 .
XW-2F 25 Feb 08:36:38 08:37:58 12° 303° (WNW) 08:39:18 145.980 - 146.000
SO-50 25 Feb 08:41:44 08:43:32 12° 251° (WSW) 08:45:19 436.795
XW-2D 25 Feb 08:42:05 08:42:28 10° 305° (NW) 08:42:52 145.860 - 145.880
AAUSAT CUBESAT 2 25 Feb 08:46:29 08:50:32 53° 100° (E) 08:54:33 437.432
XW-2A 25 Feb 08:46:48 08:49:54 30° 292° (WNW) 08:52:58 145.665 - 145.685
YUBILEINY 25 Feb 08:49:46 08:54:31 16° 70° (ENE) 08:59:16 435.215
BEESAT 3 25 Feb 08:50:47 08:54:09 26° 328° (NNW) 08:57:33 437.485
FO-29 25 Feb 08:53:07 08:59:36 34° 56° (NE) 09:06:25 435.910
UWE-3 25 Feb 08:53:29 08:58:07 55° 99° (E) 09:02:40 435.000/436.395/437.385
SEEDS 25 Feb 08:56:53 09:01:03 64° 288° (WNW) 09:05:10 437.485
DOVE 4 25 Feb 09:02:04 09:02:55 10° 307° (NW) 09:03:47 437.250
ISS 25 Feb 09:07:10 09:10:07 31° 149° (SSE) 09:13:06 437.550
ZACube-1 25 Feb 09:14:49 09:19:22 55° 100° (E) 09:23:48 437.345
AO-85 25 Feb 09:21:33 09:23:00 12° 1° (N) 09:24:25 145.980
O/OREOS (USA 219) 25 Feb 09:24:07 09:28:13 34° 253° (WSW) 09:32:21 437.305
BEESAT 2 25 Feb 09:28:50 09:32:13 25° 328° (NNW) 09:35:39 435.950
Tancredo 1 25 Feb 09:32:52 09:35:59 45° 155° (SSE) 09:39:07 437.200
EO-79 25 Feb 09:33:55 09:35:16 11° 54° (NE) 09:36:37 145.935-145.965
CUTE 1.7 + AOD 2 25 Feb 09:35:44 09:38:58 22° 298° (WNW) 09:42:11 437.475
